Regional Weather Roundup
Issued by NWS Lake Charles, LA

Home | Current Version | Previous Version | Text Only | Print | Product List | Glossary On
Versions: 1 2 3 4 5 6 7 8 9 10 11 12 13 14 15 16 17 18 19 20 21 22 23 24 25 26 27 28 29 30 31 32 33 34 35 36 37 38 39 40 41 42 43 44 45 46 47 48 49 50
000
ASUS44 KLCH 030110
RWRLCH
RWRLCH
REGIONAL WEATHER ROUNDUP
NATIONAL WEATHER SERVICE LAKE CHARLES LA
800 PM CDT SUN AUG 02 2015

Note: "fair" indicates few or no clouds below 12,000 feet with no
significant weather and/or obstructions to visibility.


ACROSS SOUTHEAST TEXAS

CITY           SKY/WX    TMP DP  RH WIND       PRES   REMARKS
BEAUMONT       CLEAR     86  68  54 S7        29.84S
BEAUMONT CITY    N/A     86  68  54 S6        29.85S
ORANGE         CLEAR     88  62  42 CALM      29.86S
JASPER         CLEAR     92  62  36 CALM      29.88S
$$

ACROSS CENTRAL LOUISIANA

CITY           SKY/WX    TMP DP  RH WIND       PRES   REMARKS
LEESVILLE      CLEAR     87  64  46 E3        29.85S
FULLERTON        N/A     83  65  54 CALM      29.84R
ALEXANDRIA INT CLEAR     85  69  58 CALM      29.84R
ESLER FIELD    CLEAR     86  67  52 CALM      29.86S
DERIDDER         N/A     90  60  35 CALM      29.88R
OAKDALE          N/A     82  71  69 CALM      29.86R
OPELOUSAS        N/A     84  73  70 CALM      29.86S
$$

ACROSS SOUTHWEST AND SOUTH CENTRAL LOUISIANA

CITY           SKY/WX    TMP DP  RH WIND       PRES   REMARKS
SULPHUR        CLEAR     87  69  53 S8        29.86R
LAKE CHARLES   CLEAR     87  70  56 S6        29.84S
CHENNAULT INT  NOT AVBL
CAMERON PHI    CLEAR     88  70  55 S10       29.88S
DEQUINCY         N/A     86  65  49 CALM      29.85S
JENNINGS         N/A     89  63  42 SE3       29.85S
LAFAYETTE      CLEAR     87  73  62 CALM      29.86R
NEW IBERIA     CLEAR     87  66  49 S6        29.87R
ABBEVILLE        N/A     84  70  63 S3        29.86S
PATTERSON      CLEAR     84  72  65 CALM      29.88R
SALT POINT       N/A     87  73  62 MISG      29.85R
$$

SELECTED SITES ACROSS THE REGION

CITY           SKY/WX    TMP DP  RH WIND       PRES   REMARKS
HOUSTON BUSH   PTCLDY    90  66  45 SE10      29.84S
HOUSTON HOBBY  PTCLDY    89  66  46 S10       29.84R
GALVESTON        N/A     87  69  54 SE10      29.86F
COLLEGE STAT   CLEAR     93  56  28 SE9       29.84S
CONROE         CLEAR     89  61  38 SE3       29.85S
HUNTSVILLE     CLEAR     92  61  35 CALM      29.85S
LUFKIN         CLEAR     89  62  40 NE3       29.85S
SHREVEPORT     MOCLDY    90  58  33 E7        29.86S
MONROE         CLEAR     86  70  58 NE3       29.87S
NATCHEZ MS     PTCLDY    84  70  61 NE3       29.88R
BATON ROUGE    CLEAR     87  68  52 CALM      29.85S
N.O. INTL ARPT MOCLDY    88  65  46 S8        29.85S
SLIDELL        CLEAR     84  72  67 CALM      29.85S
$$

MARINE REPORTS

STATION/POSITION TIME  TEMP    WIND        PRES    VSBY  WAVE
                       AIR SEA DIR/SP/G                  HT/PER
                 (UTC) (F)     (DEG/KT/KT) (MB)    (MI)  (FT/S)
BUOY 30 S HIGH I 0050   87 87  150/  8/ 10 1010.5F         1
SEA RIM ST PARK  0100   87     180/  8/ 10 1011.4S
PORT ARTHUR      0000      89  190/  5/  7 1010.9F
SABINE PASS N    0000   89 89  190/  8/ 11 1011.0F
TEXAS POINT      NOT AVBL
CALCASIEU PASS   0000   89 88  190/  9/ 12 1010.1F
LK CHARLES BEACH 0000   96 88                N/A
MARSH ISLAND     0000   89     180/  7/ 10   N/A           0
FRESH WATER LOCK 0000   88 89  170/  8/ 10 1011.1F
AMERADA PASS     0000   90 89   CALM  /  1 1011.0F
$$


USA.gov is the U.S. government's official web portal to all federal, state and local government web resources and services.